Torna al catalogo

STARLINK-2257

AttivoComunicazioniVLEO
NORAD 47787·PAYLOAD·🇺🇸 United States

Lanciato Mar 11, 2021 da Cape Canaveral Space Force Station

Loading…

Prossimi Passaggi (prossime 24 ore)

TLE

AggiornatoSource: CelesTrak SupGP

Epoca: Sep 15, 2026, 01:54 UTC

1 47787C 21018A   26258.07965278 -.00003635  00000+0 -11688-3 0  2585
2 47787  53.1564  84.3191 0001095  83.8845 260.3913 15.31705351    12

Traccia STARLINK-2257 in tempo reale con AllMySat

Download on the App Store